Change the Weather History Date:

Monday, March 24, 2014

  Actual Average (KISN) Record (KISN)
Temperature  
Mean Temperature 16 °F 33 °F  
Max Temperature 24 °F 45 °F 76 °F (1993)
Min Temperature 8 °F 22 °F -18 °F (1965)
Degree Days  
Heating Degree Days 49 32  
Month to date heating degree days 898  
Since 1 July heating degree days 7666  
Cooling Degree Days 0 0  
Month to date cooling degree days 0  
Year to date cooling degree days 0  
Moisture  
Dew Point 8 °F    
Average Humidity 69    
Maximum Humidity 100    
Minimum Humidity 43    
Precipitation  
Precipitation 0.00 in 0.02 in 0.50 in (1942)
Month to date precipitation 0.53  
Year to date precipitation 1.51  
Sea Level Pressure  
Sea Level Pressure 30.32 in    
Wind  
Wind Speed 12 mph (NW)    
Max Wind Speed 30 mph    
Max Gust Speed 40 mph    
Visibility 10 miles    
Events      
T = Trace of Precipitation, MM = Missing Value Source: NWS Daily Summary

Daily Weather History Graph

Daily Weather History Graph

Search for Another Location

Airport or City:

Trip Planner

Search our weather history database for the weather conditions in past years. The results will help you decide how hot, cold, wet, or windy it might be!

Date:

Astronomy

Mar. 24, 2014 Rise Set
Actual Time 7:46 AM CDT 8:10 PM CDT
Civil Twilight 7:14 AM CDT 8:41 PM CDT
Nautical Twilight 6:37 AM CDT 9:18 PM CDT
Astronomical Twilight 5:59 AM CDT 9:57 PM CDT
Moon 3:44 AM CDT (3/24) 1:12 PM CDT (3/24)
Length of Visible Light 13h 27m
Length of Day
12h 24m
Last Quarter, 43% of the Moon is Illuminated
Mar 24
Last Quarter
Mar 30
New
Apr 7
First Quarter
Apr 15
Full
Apr 22
Last Quarter

Hourly Weather History & Observations

Time (CDT) Temp. Windchill Dew Point Humidity Pressure Visibility Wind Dir Wind Speed Gust Speed Precip Events Conditions
12:15 AM 15.8 °F 10.2 °F 15.8 °F 100% 30.29 in 10.0 mi North 3.5 mph - N/A   Overcast
12:35 AM 15.8 °F - 15.8 °F 100% 30.29 in 10.0 mi Calm Calm - N/A   Overcast
12:55 AM 15.8 °F 10.2 °F 15.8 °F 100% 30.30 in 10.0 mi North 3.5 mph - N/A   Overcast
1:15 AM 15.8 °F 4.2 °F 14.0 °F 93% 30.30 in 10.0 mi North 9.2 mph - N/A   Overcast
1:35 AM 15.8 °F 7.2 °F 8.6 °F 73% 30.30 in 10.0 mi North 5.8 mph - N/A   Overcast
1:55 AM 15.8 °F 8.6 °F 8.6 °F 73% 30.30 in 10.0 mi NNW 4.6 mph - N/A   Overcast
2:15 AM 15.8 °F 4.2 °F 6.8 °F 68% 30.30 in 10.0 mi North 9.2 mph - N/A   Overcast
2:35 AM 15.8 °F 2.7 °F 6.8 °F 68% 30.31 in 10.0 mi NNW 11.5 mph - N/A   Overcast
2:55 AM 15.8 °F 4.2 °F 5.0 °F 62% 30.31 in 10.0 mi NNW 9.2 mph - N/A   Overcast
3:15 AM 15.8 °F 4.2 °F 6.8 °F 68% 30.31 in 10.0 mi NW 9.2 mph - N/A   Overcast
3:35 AM 15.8 °F 3.4 °F 6.8 °F 68% 30.30 in 10.0 mi NW 10.4 mph - N/A   Overcast
3:55 AM 15.8 °F 3.4 °F 6.8 °F 68% 30.30 in 10.0 mi NW 10.4 mph - N/A   Overcast
4:15 AM 15.8 °F 4.2 °F 8.6 °F 73% 30.30 in 10.0 mi WNW 9.2 mph - N/A   Overcast
4:35 AM 15.8 °F 5.1 °F 8.6 °F 73% 30.30 in 10.0 mi WNW 8.1 mph - N/A   Overcast
4:55 AM 15.8 °F 4.2 °F 8.6 °F 73% 30.30 in 10.0 mi West 9.2 mph - N/A   Overcast
5:15 AM 15.8 °F 5.1 °F 8.6 °F 73% 30.30 in 10.0 mi WNW 8.1 mph - N/A   Overcast
5:35 AM 15.8 °F 4.2 °F 8.6 °F 73% 30.30 in 10.0 mi West 9.2 mph - N/A   Overcast
5:55 AM 15.8 °F 3.4 °F 10.4 °F 79% 30.30 in 10.0 mi West 10.4 mph - N/A   Overcast
6:15 AM 15.8 °F 4.2 °F 10.4 °F 79% 30.30 in 10.0 mi West 9.2 mph - N/A   Overcast
6:35 AM 15.8 °F 5.1 °F 10.4 °F 79% 30.29 in 10.0 mi West 8.1 mph - N/A   Mostly Cloudy
6:55 AM 15.8 °F 4.2 °F 10.4 °F 79% 30.29 in 10.0 mi West 9.2 mph - N/A   Mostly Cloudy
7:15 AM 14.0 °F 2.9 °F 14.0 °F 100% 30.30 in 10.0 mi West 8.1 mph - N/A   Mostly Cloudy
7:35 AM 14.0 °F 2.9 °F 14.0 °F 100% 30.30 in 10.0 mi West 8.1 mph - N/A   Mostly Cloudy
7:55 AM 14.0 °F 2.9 °F 14.0 °F 100% 30.30 in 10.0 mi West 8.1 mph - N/A   Overcast
8:15 AM 15.8 °F 5.1 °F 15.8 °F 100% 30.30 in 10.0 mi West 8.1 mph - N/A   Overcast
8:35 AM 15.8 °F 3.4 °F 15.8 °F 100% 30.30 in 10.0 mi WNW 10.4 mph - N/A   Mostly Cloudy
8:55 AM 17.6 °F 5.0 °F 17.6 °F 100% 30.30 in 10.0 mi WNW 11.5 mph - N/A   Partly Cloudy
9:15 AM 17.6 °F 3.2 °F 17.6 °F 100% 30.31 in 10.0 mi WNW 15.0 mph 19.6 mph N/A   Partly Cloudy
9:35 AM 17.6 °F 2.2 °F 15.8 °F 93% 30.31 in 10.0 mi NW 17.3 mph 24.2 mph N/A   Partly Cloudy
9:55 AM 19.4 °F 3.2 °F 10.4 °F 68% 30.31 in 10.0 mi NW 20.7 mph 27.6 mph N/A   Clear
10:15 AM 19.4 °F 3.2 °F 10.4 °F 68% 30.31 in 10.0 mi NW 20.7 mph 26.5 mph N/A   Clear
10:35 AM 21.2 °F 4.9 °F 8.6 °F 58% 30.31 in 10.0 mi NW 23.0 mph 26.5 mph N/A   Clear
10:55 AM 23.0 °F 8.0 °F 8.6 °F 54% 30.31 in 10.0 mi NNW 20.7 mph 31.1 mph N/A   Partly Cloudy
11:15 AM 23.0 °F 9.6 °F 6.8 °F 50% 30.31 in 10.0 mi NW 16.1 mph 28.8 mph N/A   Scattered Clouds
11:35 AM 23.0 °F 6.9 °F 6.8 °F 50% 30.30 in 10.0 mi WNW 24.2 mph 28.8 mph N/A   Partly Cloudy
11:55 AM 24.8 °F 9.6 °F 5.0 °F 43% 30.30 in 10.0 mi NW 23.0 mph 28.8 mph N/A   Scattered Clouds
12:15 PM 24.8 °F 10.0 °F 5.0 °F 43% 30.30 in 10.0 mi NW 21.9 mph 31.1 mph N/A   Scattered Clouds
12:35 PM 24.8 °F 10.0 °F 6.8 °F 46% 30.30 in 10.0 mi NW 21.9 mph 31.1 mph N/A   Mostly Cloudy
12:55 PM 24.8 °F 9.6 °F 6.8 °F 46% 30.30 in 10.0 mi NW 23.0 mph 28.8 mph N/A   Mostly Cloudy
1:15 PM 24.8 °F 10.0 °F 6.8 °F 46% 30.30 in 10.0 mi NW 21.9 mph 33.4 mph N/A   Mostly Cloudy
1:35 PM 23.0 °F 7.6 °F 8.6 °F 54% 30.30 in 10.0 mi NW 21.9 mph 32.2 mph N/A   Mostly Cloudy
1:55 PM 23.0 °F 6.3 °F 8.6 °F 54% 30.31 in 10.0 mi NNW 26.5 mph 31.1 mph N/A   Mostly Cloudy
2:15 PM 24.8 °F 9.3 °F 8.6 °F 50% 30.31 in 10.0 mi NW 24.2 mph 32.2 mph N/A   Mostly Cloudy
2:35 PM 23.0 °F 6.9 °F 6.8 °F 50% 30.31 in 10.0 mi NNW 24.2 mph 31.1 mph N/A   Mostly Cloudy
2:55 PM 23.0 °F 8.3 °F 8.6 °F 54% 30.31 in 10.0 mi NNW 19.6 mph 36.8 mph N/A   Mostly Cloudy
3:15 PM 23.0 °F 8.0 °F 8.6 °F 54% 30.31 in 10.0 mi NW 20.7 mph 29.9 mph N/A   Overcast
3:35 PM 23.0 °F 6.3 °F 6.8 °F 50% 30.31 in 10.0 mi NNW 26.5 mph 35.7 mph N/A   Mostly Cloudy
3:55 PM 21.2 °F 4.9 °F 6.8 °F 54% 30.31 in 10.0 mi NNW 23.0 mph 35.7 mph N/A   Mostly Cloudy
4:15 PM 23.0 °F 6.9 °F 6.8 °F 50% 30.31 in 10.0 mi NNW 24.2 mph 39.1 mph N/A   Overcast
4:35 PM 21.2 °F 3.0 °F 5.0 °F 50% 30.32 in 10.0 mi NNW 29.9 mph 35.7 mph N/A   Overcast
4:55 PM 19.4 °F 1.1 °F 3.2 °F 49% 30.32 in 10.0 mi NW 27.6 mph 40.3 mph N/A   Mostly Cloudy
5:15 PM 21.2 °F 4.5 °F 5.0 °F 50% 30.32 in 10.0 mi NNW 24.2 mph 35.7 mph N/A   Mostly Cloudy
5:35 PM 19.4 °F 0.5 °F 3.2 °F 49% 30.33 in 10.0 mi NNW 29.9 mph 39.1 mph N/A   Scattered Clouds
5:55 PM 19.4 °F 1.1 °F 3.2 °F 49% 30.33 in 10.0 mi NNW 27.6 mph 38.0 mph N/A   Scattered Clouds
6:15 PM 19.4 °F 0.8 °F 3.2 °F 49% 30.34 in 10.0 mi NNW 28.8 mph 35.7 mph N/A   Mostly Cloudy
6:35 PM 17.6 °F -1.6 °F 3.2 °F 53% 30.34 in 10.0 mi NNW 28.8 mph 38.0 mph N/A   Mostly Cloudy
6:55 PM 15.8 °F -3.7 °F 1.4 °F 53% 30.34 in 10.0 mi NNW 27.6 mph 35.7 mph N/A   Mostly Cloudy
7:15 PM 15.8 °F -2.7 °F 1.4 °F 53% 30.34 in 10.0 mi NNW 24.2 mph 31.1 mph N/A   Partly Cloudy
7:35 PM 15.8 °F -1.9 °F 1.4 °F 53% 30.35 in 10.0 mi NNW 21.9 mph 28.8 mph N/A   Clear
7:55 PM 14.0 °F -3.0 °F 3.2 °F 62% 30.35 in 10.0 mi NNW 18.4 mph 31.1 mph N/A   Clear
8:15 PM 14.0 °F -2.0 °F 3.2 °F 62% 30.35 in 10.0 mi NNW 16.1 mph 24.2 mph N/A   Partly Cloudy
8:35 PM 12.2 °F -3.1 °F 3.2 °F 67% 30.35 in 10.0 mi NNW 13.8 mph 24.2 mph N/A   Scattered Clouds
8:55 PM 12.2 °F -4.3 °F 5.0 °F 73% 30.35 in 10.0 mi NNW 16.1 mph 20.7 mph N/A   Scattered Clouds
9:15 PM 10.4 °F -6.0 °F 5.0 °F 79% 30.36 in 10.0 mi NNW 15.0 mph 21.9 mph N/A   Mostly Cloudy
9:35 PM 10.4 °F -4.1 °F 5.0 °F 79% 30.36 in 10.0 mi NNW 11.5 mph 19.6 mph N/A   Scattered Clouds
9:55 PM 10.4 °F -6.0 °F 5.0 °F 79% 30.36 in 10.0 mi NNW 15.0 mph 20.7 mph N/A   Clear
10:15 PM 10.4 °F -4.8 °F 5.0 °F 79% 30.36 in 10.0 mi NW 12.7 mph 21.9 mph N/A   Clear
10:35 PM 10.4 °F -4.8 °F 6.8 °F 85% 30.36 in 10.0 mi NW 12.7 mph - N/A   Clear
10:55 PM 10.4 °F -2.4 °F 6.8 °F 85% 30.36 in 10.0 mi NW 9.2 mph - N/A   Clear
11:15 PM 8.6 °F -3.7 °F 6.8 °F 92% 30.36 in 10.0 mi NW 8.1 mph - N/A   Clear
11:35 PM 8.6 °F -4.7 °F 6.8 °F 92% 30.35 in 10.0 mi WNW 9.2 mph - N/A   Clear
11:55 PM 8.6 °F -4.7 °F 8.6 °F 100% 30.35 in 10.0 mi WNW 9.2 mph - N/A   Clear